Weather Roundup
Issued by NWS

Home | Current Version | Previous Version | Text Only | Print | Product List | Glossary On
Versions: 1 2 3 4 5 6 7 8 9 10 11 12 13 14 15 16 17 18 19 20 21 22 23 24 25 26 27 28 29 30 31 32 33 34 35 36 37 38 39 40 41 42 43 44 45 46 47 48 49 50
000
NZUS93 KARX 301459
HRRWXR

CURRENT HOURLY OBSERVATIONS ACROSS
MUCH OF THE UPPER MISSISSIPPI VALLEY
NATIONAL WEATHER SERVICE LA CROSSE WI
1000 AM CDT THU JUL 30 2015


...SOUTHEAST MINNESOTA...


CITY           SKY/WX    TMP DP  RH WIND       PRES   REMARKS
ROCHESTER      SUNNY     74  60  61 W9        30.09F
ROCHESTER/MAYO FAIR      74  56  53 W17G23    30.07F
WINONA         SUNNY     77  55  47 W8        30.05S
AUSTIN         SUNNY     77  55  47 W12G17    30.09F
ALBERT LEA     SUNNY     75  59  57 W5        30.10S
DODGE CENTER   SUNNY     73  57  56 W10G18    30.09S
PRESTON        SUNNY     75  57  53 W10       30.09S
OWATONNA       SUNNY     73  57  56 W8        30.08F
FARIBAULT      SUNNY     75  59  57 W8        30.08S
$$

...ELSEWHERE IN MINNESOTA...


CITY           SKY/WX    TMP DP  RH WIND       PRES   REMARKS
MINNEAPOLIS    SUNNY     77  56  48 W10       30.04R
INTNL FALLS    CLOUDY    67  57  70 W9        29.93R
DULUTH         MOSUNNY   74  58  57 W14       29.96S
RED WING       SUNNY     79  55  44 W10       30.02F
REDWOOD FALLS  SUNNY     76  58  53 NW9       30.10R
MANKATO        SUNNY     73  57  56 W13       30.09S
WORTHINGTON    SUNNY     73  57  56 W9        30.14S
FAIRMONT       SUNNY     77  57  50 W8        30.11S
$$

...SOUTHWEST WISCONSIN...


CITY           SKY/WX    TMP DP  RH WIND       PRES   REMARKS
LA CROSSE      SUNNY     79  57  46 W5        30.04F
PRAIRIE DU CHI SUNNY     76  57  51 SW3       30.07S
BOSCOBEL       SUNNY     79  61  53 W5        30.07S
LONE ROCK      NOT AVBL
PLATTEVILLE    SUNNY     74  64  70 W5        30.09S
FORT MC COY    SUNNY     76  55  48 W9        30.05S
VIROQUA        FAIR      74  58  57 W8        30.08R
WIS DELLS      SUNNY     77  54  44 W10G17    30.05R
$$

...ELSEWHERE IN WISCONSIN...


CITY           SKY/WX    TMP DP  RH WIND       PRES   REMARKS
MILWAUKEE      SUNNY     80  53  39 NW12      30.02S
MADISON        SUNNY     77  59  53 VRB6      30.04S
GREEN BAY      SUNNY     78  60  53 W15       29.96S
EAU CLAIRE     NOT AVBL
BLACK RVR FLS  FAIR      76  55  46 W10       30.03S
MEDFORD        SUNNY     70  59  68 W12       30.01S
WAUSAU         SUNNY     76  57  51 W15       29.98R
WIS RAPIDS     SUNNY     77  56  48 W12       30.02S
MARSHFIELD     SUNNY     74  57  55 W10G20    30.02R
RICE LAKE      SUNNY     71  60  67 W5        30.02S
$$

...NORTHEAST IOWA...


CITY           SKY/WX    TMP DP  RH WIND       PRES   REMARKS
DECORAH        SUNNY     73  61  64 VRB6      30.09S
MASON CITY     SUNNY     77  63  61 W9        30.13R
CHARLES CITY   SUNNY     73  63  68 W7        30.12R
OELWEIN        SUNNY     72  63  73 W6        30.12S
$$

...ELSEWHERE IN IOWA...


CITY           SKY/WX    TMP DP  RH WIND       PRES   REMARKS
DES MOINES     MOSUNNY   80  58  46 W10       30.16R
IOWA CITY      SUNNY     76  62  62 NW8       30.14R
FORT DODGE     SUNNY     73  63  68 W10       30.16S
$$

...NORTHERN ILLINOIS...


CITY           SKY/WX    TMP DP  RH WIND       PRES   REMARKS
CHICAGO-OHARE  SUNNY     79  58  48 NW14      30.06S
CHICAGO-MIDWAY SUNNY     82  56  40 NW10      30.06S
MOLINE         SUNNY     78  63  59 W7        30.11S
ROCKFORD       SUNNY     79  60  52 NW9       30.09S
PEORIA         SUNNY     79  62  56 NW8       30.13R
$$

NOTE: "FAIR" INDICATES FEW OR NO CLOUDS BELOW 12,000 FEET WITH NO
SIGNIFICANT WEATHER AND/OR OBSTRUCTIONS TO VISIBILITY. WIND
SPEEDS ARE IN MILES-PER-HOUR.



USA.gov is the U.S. government's official web portal to all federal, state and local government web resources and services.